Location: Unspecified
(0.0000°N, 0.0000°E)
Time: 00:05:47
(UTC+00:00)

N. Korean satellite - Pass Details

Date: 21 February 2020
Orbit: 456 x 505 km, 97.2° (Epoch: 26 February)

Event Time Altitude Azimuth Distance (km) Brightness Sun altitude
Rises 05:18:49 0° 13° (NNE) 2,576 10.3 -13.5°
Reaches altitude 10° 05:20:54 10° 14° (NNE) 1,690 9.3 -13.0°
Maximum altitude 05:24:32 79° 101° (E) 505 6.7 -12.1°
Drops below altitude 10° 05:28:08 10° 188° (S) 1,674 9.3 -11.2°
Sets 05:30:12 0° 189° (S) 2,549 10.3 -10.7°
